Location: Boiro
(42.6475°N, 8.8834°W)
Time: 05:45:45
(UTC+01:00)

Transit 4A - Pass Details

Date: 03 December 2021
Orbit: 864 x 980 km, 66.8° (Epoch: 17 January)

Event Time Altitude Azimuth Distance (km) Brightness Sun altitude
Exits shadow 04:11:22 11° 76° (ENE) 2,604 10.7 -49.9°
Drops below altitude 10° 04:11:50 10° 80° (E) 2,709 10.8 -49.8°
Sets 04:15:19 0° 98° (E) 3,666 11.6 -49.2°
